This is the latest recevied weather packets stored in our database for station/object OZ1IEP-5. If no packets are shown the sender has not sent any weather packets the latest 10 day(s).
| Time | Temp. | Humidity | Pressure | Rain* | Wind** | Luminosity | Snow |
|---|---|---|---|---|---|---|---|
| 1787407807 | 20.56° C | 65% | 1006.7 hPa | 0 mm | - | 682 W/m² | - |
| 1787407210 | 20.56° C | 63% | 1006.7 hPa | 0 mm | - | 197 W/m² | - |
| 1787406607 | 21.11° C | 63% | 1006.7 hPa | 0 mm | - | 650 W/m² | - |
| 1787406006 | 21.11° C | 63% | 1006.6 hPa | 0 mm | - | 694 W/m² | - |
| 1787405409 | 21.11° C | 63% | 1006.4 hPa | 0 mm | - | 642 W/m² | - |
| 1787404806 | 20.56° C | 64% | 1006.5 hPa | 0 mm | - | 659 W/m² | - |
| 1787404205 | 20.56° C | 65% | 1006.5 hPa | 0 mm | - | 666 W/m² | - |
| 1787403609 | 20.56° C | 65% | 1006.5 hPa | 0 mm | - | 666 W/m² | - |
| 1787403006 | 20° C | 65% | 1006.5 hPa | 0 mm | - | 680 W/m² | - |
| 1787402406 | 20° C | 68% | 1006.5 hPa | 0 mm | - | 429 W/m² | - |
| 1787401809 | 19.44° C | 68% | 1006.6 hPa | 0 mm | - | 308 W/m² | - |
| 1787401206 | 20° C | 67% | 1006.6 hPa | 0 mm | - | 251 W/m² | - |
| 1787400606 | 20° C | 66% | 1006.6 hPa | 0 mm | - | 316 W/m² | - |
| 1787400010 | 20° C | 67% | 1006.5 hPa | 0 mm | - | 330 W/m² | - |
| 1787399407 | 20° C | 69% | 1006.5 hPa | 0 mm | - | 986 W/m² | - |
| 1787398806 | 19.44° C | 70% | 1006.4 hPa | 0 mm | - | 793 W/m² | - |
| 1787398209 | 18.89° C | 73% | 1006.3 hPa | 0 mm | - | 972 W/m² | - |
| 1787397607 | 17.78° C | 74% | 1006.4 hPa | 0 mm | - | 564 W/m² | - |
| 1787397007 | 17.22° C | 75% | 1006.2 hPa | 0 mm | - | 214 W/m² | - |
| 1787396409 | 17.22° C | 74% | 1006.3 hPa | 0 mm | - | 149 W/m² | - |
| 1787395806 | 17.22° C | 74% | 1006.2 hPa | 0 mm | - | 188 W/m² | - |
| 1787395206 | 17.22° C | 74% | 1006.3 hPa | 0 mm | - | 200 W/m² | - |
| 1787394610 | 17.78° C | 75% | 1006.2 hPa | 0 mm | - | 257 W/m² | - |
| 1787394006 | 17.22° C | 74% | 1006.1 hPa | 0 mm | - | 281 W/m² | - |
| 1787393406 | 17.22° C | 75% | 1006.1 hPa | 0 mm | - | 239 W/m² | - |
* Rain latest hour (hover to see other rain measurements)
** Current wind speed in m/s (hover to see current wind gust speed)